| time (UTC) | temp F | wind direction | speed MPH | gust MPH | rain 1hr in | rain 24hr in | rain mn in | humidity % | barometer mb |
| 20260506084530 | 50 | 90 | 2.0 | 3.0 | 0.00 | 0.00 | 0.00 | 90 | 1018.2 |
| 20260506083034 | 49 | 90 | 1.0 | 3.0 | 0.00 | 0.00 | 0.00 | 90 | 1018.2 |
| 20260506081606 | 49 | 110 | 1.0 | 4.0 | 0.00 | 0.00 | 0.00 | 89 | 1018.1 |
| 20260506080148 | 49 | 157 | 0.0 | 0.0 | 0.00 | 0.00 | 0.00 | 88 | 1017.9 |
| 20260506071530 | 51 | 167 | 2.0 | 4.0 | 0.00 | 0.00 | 0.00 | 87 | 1017.7 |
| 20260506044608 | 57 | 175 | 1.0 | 3.0 | 0.00 | 0.00 | 0.00 | 75 | 1016.8 |
| 20260506043034 | 58 | 247 | 0.0 | 1.0 | 0.00 | 0.00 | 0.00 | 73 | 1016.7 |
| 20260506041535 | 58 | 232 | 0.0 | 3.0 | 0.00 | 0.00 | 0.00 | 72 | 1016.5 |
| 20260506040040 | 59 | 182 | 1.0 | 3.0 | 0.00 | 0.00 | 0.00 | 70 | 1016.4 |
| 20260506034532 | 60 | 160 | 0.0 | 3.0 | 0.00 | 0.00 | 0.00 | 69 | 1016.2 |
| 20260506033106 | 61 | 148 | 2.0 | 3.0 | 0.00 | 0.00 | 0.00 | 67 | 1016.1 |
| 20260506031530 | 62 | 115 | 1.0 | 4.0 | 0.00 | 0.00 | 0.00 | 65 | 1015.9 |
| 20260506030032 | 64 | 97 | 3.0 | 6.0 | 0.00 | 0.00 | 0.00 | 63 | 1015.8 |
| 20260506024535 | 66 | 94 | 3.0 | 5.0 | 0.00 | 0.00 | 0.00 | 61 | 1015.5 |
| 20260506023034 | 68 | 93 | 3.0 | 6.0 | 0.00 | 0.00 | 0.00 | 57 | 1015.5 |
| 20260506021537 | 70 | 89 | 4.0 | 7.0 | 0.00 | 0.00 | 0.00 | 53 | 1015.5 |
| 20260506020111 | 72 | 81 | 5.0 | 9.0 | 0.00 | 0.00 | 0.00 | 51 | 1015.4 |
| 20260506014606 | 74 | 65 | 4.0 | 9.0 | 0.00 | 0.00 | 0.00 | 48 | 1015.4 |
| 20260506013035 | 75 | 58 | 4.0 | 8.0 | 0.00 | 0.00 | 0.00 | 46 | 1015.3 |
| 20260506011530 | 76 | 63 | 5.0 | 9.0 | 0.00 | 0.00 | 0.00 | 44 | 1015.3 |
| 20260506010033 | 77 | 53 | 4.0 | 8.0 | 0.00 | 0.00 | 0.00 | 42 | 1015.2 |
| 20260506004534 | 78 | 46 | 5.0 | 10.0 | 0.00 | 0.00 | 0.00 | 40 | 1015.2 |
| 20260506003035 | 79 | 52 | 5.0 | 10.0 | 0.00 | 0.00 | 0.00 | 37 | 1015.2 |
| 20260506001641 | 79 | 51 | 4.0 | 9.0 | 0.00 | 0.00 | 0.00 | 35 | 1015.1 |
| 20260506000106 | 79 | 57 | 4.0 | 7.0 | 0.00 | 0.00 | 0.00 | 36 | 1015.3 |
| 20260505234608 | 79 | 53 | 5.0 | 10.0 | 0.00 | 0.00 | 0.00 | 36 | 1015.4 |
| 20260505233031 | 79 | 51 | 5.0 | 10.0 | 0.00 | 0.00 | 0.00 | 36 | 1015.4 |
| 20260505231531 | 79 | 40 | 6.0 | 11.0 | 0.00 | 0.00 | 0.00 | 37 | 1015.5 |
| 20260505230032 | 79 | 49 | 5.0 | 10.0 | 0.00 | 0.00 | 0.00 | 37 | 1015.6 |
| 20260505224536 | 79 | 40 | 5.0 | 10.0 | 0.00 | 0.00 | 0.00 | 38 | 1015.7 |
| 20260505223035 | 79 | 53 | 3.0 | 7.0 | 0.00 | 0.00 | 0.00 | 38 | 1015.8 |
| 20260505221606 | 78 | 39 | 4.0 | 8.0 | 0.00 | 0.00 | 0.00 | 39 | 1015.9 |
| 20260505220032 | 77 | 42 | 4.0 | 9.0 | 0.00 | 0.00 | 0.00 | 40 | 1016.0 |
| 20260505214537 | 77 | 44 | 5.0 | 10.0 | 0.00 | 0.00 | 0.00 | 40 | 1016.1 |
| 20260505213034 | 76 | 41 | 4.0 | 10.0 | 0.00 | 0.00 | 0.00 | 40 | 1016.2 |
| 20260505211531 | 76 | 56 | 3.0 | 9.0 | 0.00 | 0.00 | 0.00 | 43 | 1016.5 |
| 20260505204537 | 76 | 53 | 4.0 | 8.0 | 0.00 | 0.00 | 0.00 | 43 | 1016.5 |
| 20260505201544 | 75 | 44 | 4.0 | 9.0 | 0.00 | 0.00 | 0.00 | 45 | 1016.7 |
| 20260505200038 | 75 | 43 | 5.0 | 10.0 | 0.00 | 0.00 | 0.00 | 46 | 1016.7 |
| 20260505194535 | 75 | 37 | 4.0 | 9.0 | 0.00 | 0.00 | 0.00 | 46 | 1016.8 |
| 20260505193031 | 74 | 28 | 3.0 | 7.0 | 0.00 | 0.00 | 0.00 | 48 | 1016.8 |
| 20260505191533 | 73 | 46 | 3.0 | 8.0 | 0.00 | 0.00 | 0.00 | 49 | 1016.8 |
| 20260505190036 | 73 | 51 | 3.0 | 9.0 | 0.00 | 0.00 | 0.00 | 49 | 1017.0 |
| 20260505184535 | 72 | 64 | 4.0 | 8.0 | 0.00 | 0.00 | 0.00 | 52 | 1017.1 |
| 20260505183036 | 71 | 61 | 4.0 | 7.0 | 0.00 | 0.00 | 0.00 | 53 | 1017.0 |
| 20260505181608 | 70 | 60 | 4.0 | 9.0 | 0.00 | 0.00 | 0.00 | 54 | 1016.9 |
| 20260505180033 | 69 | 64 | 3.0 | 9.0 | 0.00 | 0.00 | 0.00 | 55 | 1016.9 |
| 20260505174531 | 69 | 57 | 4.0 | 8.0 | 0.00 | 0.00 | 0.00 | 57 | 1016.9 |
| 20260505173030 | 68 | 44 | 3.0 | 7.0 | 0.00 | 0.00 | 0.00 | 58 | 1016.9 |
| 20260505171605 | 67 | 42 | 4.0 | 9.0 | 0.00 | 0.00 | 0.00 | 60 | 1016.8 |
| 20260505170029 | 66 | 46 | 4.0 | 8.0 | 0.00 | 0.00 | 0.00 | 61 | 1016.8 |
| 20260505164532 | 65 | 43 | 3.0 | 7.0 | 0.00 | 0.00 | 0.00 | 62 | 1016.8 |
| 20260505163036 | 64 | 51 | 3.0 | 6.0 | 0.00 | 0.00 | 0.00 | 63 | 1016.7 |
| 20260505161536 | 64 | 57 | 3.0 | 7.0 | 0.00 | 0.00 | 0.00 | 65 | 1016.8 |
| 20260505153034 | 61 | 91 | 2.0 | 5.0 | 0.00 | 0.00 | 0.00 | 71 | 1016.3 |
| 20260505151537 | 60 | 111 | 1.0 | 4.0 | 0.00 | 0.00 | 0.00 | 74 | 1016.4 |
| 20260505130107 | 49 | 125 | 2.0 | 4.0 | 0.00 | 0.00 | 0.00 | 85 | 1015.0 |
| 20260505124532 | 50 | 151 | 2.0 | 4.0 | 0.00 | 0.00 | 0.00 | 84 | 1014.8 |
| 20260505123036 | 51 | 97 | 0.0 | 4.0 | 0.00 | 0.00 | 0.00 | 83 | 1014.7 |
| 20260505121535 | 51 | 105 | 3.0 | 4.0 | 0.00 | 0.00 | 0.00 | 82 | 1014.6 |
| 20260505120036 | 52 | 130 | 3.0 | 4.0 | 0.00 | 0.00 | 0.00 | 81 | 1014.7 |
| 20260505113035 | 52 | 169 | 0.0 | 3.0 | 0.00 | 0.00 | 0.00 | 79 | 1014.5 |
| 20260505111537 | 51 | 289 | 0.0 | 4.0 | 0.00 | 0.00 | 0.00 | 80 | 1014.4 |
| 20260505101536 | 53 | 247 | 2.0 | 3.0 | 0.00 | 0.00 | 0.00 | 77 | 1014.1 |
| 20260505100044 | 54 | 316 | 1.0 | 4.0 | 0.00 | 0.00 | 0.00 | 77 | 1014.1 |
| 20260505094536 | 54 | 12 | 1.0 | 3.0 | 0.00 | 0.00 | 0.00 | 75 | 1014.0 |
| 20260505093143 | 55 | 22 | 1.0 | 3.0 | 0.00 | 0.00 | 0.00 | 75 | 1014.1 |
| 20260505091608 | 55 | 22 | 3.0 | 5.0 | 0.00 | 0.00 | 0.00 | 74 | 1014.0 |